2000 JJ5  

Epoch 2000 May  16.0 TT = JDT 2451680.5                 Nakano

M  29.72846              (2000.0)            P               Q

n   0.36995950     Peri.   50.24358     -0.34355815     -0.92797141

a   1.9217635      Node    60.41708     +0.80288631     -0.36996111

e   0.7042157      Incl.    9.55461     +0.48717694     -0.04469717

P   2.66           H   18.6           G   0.15           U   *

Residuals in seconds of arc 

000503 704  0.2+  0.2-    000504 651  1.1-  0.5-    000505 046  0.2-  0.1+  

000503 704  0.0   0.4-    000504 704  0.1-  0.1-    000505 046  0.5-  0.7+  

000503 704  0.1+  0.0     000504 704  0.1+  0.1+    000505 046  0.1-  0.4+  

000503 704  0.2+  0.2+    000504 704  0.4+  0.2+    000505 046  0.1+  0.1+  

000503 704  0.1+  0.0     000504 704  0.5-  0.5+    000505 046  0.3+  0.0   

000503 046  0.6+  0.1+    000504 350  0.2+  1.4-    000505 046  0.0   0.2+  

000503 046  0.3+  0.1+    000504 350  0.3-  0.6-    000505 540  0.0   0.0   

000503 046  0.1-  0.0     000504 350  0.4+  0.7-    000505 540  0.1-  0.2+  

000503 046  0.3+  0.4+    000504 557  0.4-  0.1-    000505 540  0.2-  0.1+  

000503 557  0.3-  0.3-    000504 557  0.4-  0.5-    000505 118  0.3+  0.0   

000503 557  0.1+  0.0     000504 557  0.3-  0.3+    000505 118  0.0   0.1+  

000503 557  0.3-  0.1-    000504 611  0.1-  0.5-    000505 118  0.0   0.1-  

000503 557  0.5-  0.1-    000504 611  0.6-  0.0     000506 704  0.2-  0.1-  

000503 118  0.3+  0.5+    000504 611  0.4-  0.4-    000506 704  0.0   0.2+  

000503 118  0.4-  0.2+    000504 611  0.2+  0.6-    000506 704  0.4+  0.0   

000503 118  0.9-  0.9+    000505 649  0.0   0.1-    000506 704  0.1-  0.7-  

000504 739  0.9+  1.6+    000505 649  0.5+  0.0     000506 704  0.3-  0.2-  

000504 739  0.3-  0.1-    000505 704  0.0   0.3+    000506 113  0.3+  0.4+  

000504 739  0.4-  0.4-    000505 704  0.3+  0.4-    000506 113  0.1+  0.3+  

000504 704  0.0   0.1+    000505 704  0.1+  0.1-    000506 113  0.2+  0.1+  

000504 704  0.6+  0.4+    000505 704  0.1+  0.2-    000506 113  0.3+  0.1+  

000504 704  0.1+  0.4+    000505 704  0.1+  0.0     000506 113  0.1-  0.0   

000504 704  0.2+  0.2+    000505 704  0.4+  0.3+    000506 113  0.1+  0.3-  

000504 704  0.1+  0.2-    000505 704  0.3+  0.1+    000506 113  0.3+  0.1+  

000504 704  0.5+  0.2+    000505 704  0.2-  0.1+    000506 113  0.0   0.1+  

000504 704  0.2-  0.2+    000505 704  0.2+  0.1+    000506 113  0.2+  0.1-  

000504 704  0.6+  0.4-    000505 704  0.3+  0.2-    000506 113  0.7+  0.1+  

000504 704  0.1-  0.3+    000505 858  0.7-  0.4+    000508 360  0.4-  0.3-  

000504 651  0.2-  0.4-    000505 858  0.2-  0.2+    000508 360  0.4-  0.0   

000504 651  0.1-  0.6-    000505 858  0.3-  0.0     000508 360  0.2-  0.2-  

  

NAKANO

         **** Don't distribute anyone except personal use only ****

                (C) Copyright 2000 OAA/ComputingSection

write mail from CFAD0::NAKANO on 2000-05-10 00:10:32(JST).

 



–ß‚è‚Ü‚·B